Weather reports worldwide

Advertisment
Capo Caccia, Italy (16522): temperature & dewpoint: 09.07.2018 20:00:00 - 15.07.2018 20:00:00 (CEST)Capo Caccia, Italy (16522): wind speed: 09.07.2018 20:00:00 - 15.07.2018 20:00:00 (CEST)Capo Caccia, Italy (16522): wind direction: 09.07.2018 20:00:00 - 15.07.2018 20:00:00 (CEST)Capo Caccia, Italy (16522): reduced air pressure: 09.07.2018 20:00:00 - 15.07.2018 20:00:00 (CEST)Capo Caccia, Italy (16522): visibility: 09.07.2018 20:00:00 - 15.07.2018 20:00:00 (CEST)Capo Caccia, Italy (16522): sunshine duration: 09.07.2018 20:00:00 - 15.07.2018 20:00:00 (CEST)
Date & Time tt [°C] td [°C] ff [km/h] ff [kn] dd ppp [hPa] vv [km] sd [min]
15.07.2018 20:00:00 28,0 22,0 4 2 WNW 1015,1 15 60
15.07.2018 19:00:00 28,0 23,6 4 2 NNW 1015,1 15 60
15.07.2018 18:00:00 28,0 22,7 5 3 WNW 1015,8 15 60
15.07.2018 17:00:00 27,8 25,0 13 7 WNW 1016,1 15 60
15.07.2018 16:00:00 28,0 25,2 13 7 WSW 1016,6 12 60
15.07.2018 15:00:00 28,0 25,0 15 8 WSW 1016,6 20 60
15.07.2018 14:00:00 28,0 24,8 15 8 WNW 1016,6 15 60
15.07.2018 13:00:00 29,0 23,9 8 4 SW 1016,5 12 60
15.07.2018 12:00:00 27,2 22,8 8 4 SW 1016,3 10 60
15.07.2018 11:00:00 27,0 25,2 8 4 WNW 1016,1 10 0
15.07.2018 10:00:00 26,6 24,8 4 2 SSW 1016,0 10 0
15.07.2018 09:00:00 27,0 24,3 8 4 E 1015,6 10 60
15.07.2018 08:00:00 25,2 23,4 0 0 N 1015,4 20 0
15.07.2018 07:00:00 24,6 22,9 0 0 N 1015,2 15 0
15.07.2018 06:00:00 24,0 22,3 5 3 SSE 1014,9 15 -
15.07.2018 05:00:00 24,0 22,3 0 0 N 1014,8 15 -
15.07.2018 04:00:00 24,0 22,3 0 0 N 1014,9 15 -
15.07.2018 03:00:00 24,8 22,7 11 6 NNW 1014,6 15 -
15.07.2018 02:00:00 24,4 21,9 8 4 SSW 1014,2 15 -
15.07.2018 01:00:00 24,4 22,3 5 3 WNW 1014,1 15 -
15.07.2018 00:00:00 25,0 23,1 8 4 SW 1014,1 10 -
14.07.2018 23:00:00 25,0 23,1 5 3 NW 1014,0 4,0 -
14.07.2018 22:00:00 25,0 24,1 21 11 SSE 1014,0 4,0 -
14.07.2018 21:00:00 25,0 24,1 24 13 SSE 1014,0 10 0
14.07.2018 20:00:00 25,4 24,7 26 14 SSE 1014,3 10 0
14.07.2018 19:00:00 25,8 24,8 16 9 S 1014,5 10 0
14.07.2018 18:00:00 26,4 25,0 21 11 S 1014,7 10 30
14.07.2018 17:00:00 27,0 25,6 16 9 S 1015,0 10 48
14.07.2018 16:00:00 27,0 25,2 15 8 S 1015,0 10 60
14.07.2018 15:00:00 27,0 24,8 11 6 S 1014,8 20 60
14.07.2018 14:00:00 27,0 24,3 13 7 S 1015,0 20 60
14.07.2018 13:00:00 27,6 24,9 22 12 S 1014,4 20 60
14.07.2018 12:00:00 29,0 23,0 24 13 SE 1014,7 20 60
14.07.2018 11:00:00 31,0 22,3 9 5 E 1014,5 20 60
14.07.2018 10:00:00 30,0 21,4 22 12 NE 1013,7 20 60
14.07.2018 09:00:00 28,8 20,3 34 18 NE 1013,2 20 0
14.07.2018 08:00:00 28,0 19,0 22 12 NE 1014,1 20 0
14.07.2018 07:00:00 27,8 18,5 13 7 NNE 1015,0 20 0
14.07.2018 06:00:00 28,4 19,4 9 5 NE 1015,0 20 -
14.07.2018 05:00:00 28,2 20,5 15 8 NE 1015,0 20 -
14.07.2018 04:00:00 27,8 20,9 16 9 NE 1015,2 20 -
14.07.2018 03:00:00 28,8 18,6 5 3 WNW 1015,0 20 -
14.07.2018 02:00:00 30,2 18,0 5 3 SSE 1015,0 20 -
14.07.2018 01:00:00 30,8 19,2 22 12 SE 1014,8 20 -
14.07.2018 00:00:00 28,0 18,4 11 6 E 1015,3 20 -
13.07.2018 23:00:00 28,0 20,8 24 13 NE 1016,0 20 -
13.07.2018 22:00:00 27,4 20,2 31 17 NE 1016,0 20 -
13.07.2018 21:00:00 27,8 19,3 31 17 NNE 1015,1 20 12
13.07.2018 20:00:00 29,0 19,9 28 15 NNE 1015,0 20 60
13.07.2018 19:00:00 29,4 19,7 31 17 NE 1014,4 20 60
13.07.2018 18:00:00 32,4 15,4 29 16 NE 1015,0 20 60
13.07.2018 17:00:00 34,4 12,7 24 13 NNE 1015,5 20 60
13.07.2018 16:00:00 35,2 12,8 18 10 NNE 1015,6 20 60
13.07.2018 15:00:00 33,8 12,2 9 5 NNW 1015,9 20 60
13.07.2018 14:00:00 34,8 10,6 18 10 NE 1015,8 20 60
13.07.2018 13:00:00 33,8 13,8 21 11 NE 1016,2 20 60
13.07.2018 12:00:00 31,8 15,7 28 15 NE 1015,9 20 60
13.07.2018 11:00:00 30,8 16,8 31 17 NE 1015,8 20 60
13.07.2018 10:00:00 29,0 18,8 31 17 NE 1016,1 20 60
13.07.2018 09:00:00 26,8 20,6 26 14 NNE 1016,2 20 60
13.07.2018 08:00:00 24,8 18,7 22 12 NNE 1016,1 20 18
13.07.2018 07:00:00 24,6 18,3 24 13 NNE 1016,0 20 -
13.07.2018 06:00:00 23,6 17,4 15 8 NNE 1016,1 20 -
13.07.2018 05:00:00 23,8 13,9 9 5 NNE 1016,3 20 -
13.07.2018 04:00:00 24,4 14,5 9 5 NNE 1016,1 20 -
13.07.2018 03:00:00 25,0 15,4 11 6 ENE 1016,0 20 -
13.07.2018 02:00:00 25,0 16,4 11 6 ENE 1016,0 20 -
13.07.2018 01:00:00 24,8 17,3 15 8 NE 1016,1 20 -
13.07.2018 00:00:00 24,8 17,5 18 10 NE 1015,8 20 -
12.07.2018 23:00:00 24,8 16,3 16 9 NNE 1015,7 20 -
12.07.2018 22:00:00 25,8 15,2 18 10 NNE 1015,3 20 -
12.07.2018 21:00:00 26,8 17,0 16 9 NNE 1015,2 20 -
12.07.2018 20:00:00 27,6 19,7 9 5 NW 1015,1 20 60
12.07.2018 19:00:00 29,0 19,0 5 3 WNW 1015,0 20 60
12.07.2018 18:00:00 29,0 18,2 8 4 NW 1015,0 20 60
12.07.2018 17:00:00 29,2 17,7 9 5 WNW 1015,1 20 60
12.07.2018 16:00:00 29,0 18,5 8 4 W 1015,3 20 60
12.07.2018 15:00:00 28,2 19,7 21 11 WNW 1015,3 20 60
12.07.2018 14:00:00 27,4 21,0 16 9 WNW 1015,4 20 60
12.07.2018 13:00:00 28,2 19,2 8 4 NW 1015,2 20 60
12.07.2018 12:00:00 27,8 19,9 9 5 NW 1015,2 20 60
12.07.2018 11:00:00 29,0 19,3 8 4 N 1015,1 20 60
12.07.2018 10:00:00 27,6 15,0 5 3 NE 1015,1 20 60
12.07.2018 09:00:00 24,6 22,1 8 4 S 1015,4 20 60
12.07.2018 08:00:00 23,8 22,6 8 4 SSE 1015,3 15 60
12.07.2018 07:00:00 23,0 22,3 5 3 S 1014,7 15 -
12.07.2018 06:00:00 23,0 22,7 9 5 SSE 1014,8 15 -
12.07.2018 05:00:00 23,0 22,2 8 4 S 1015,4 15 -
12.07.2018 04:00:00 23,2 22,0 8 4 S 1015,5 15 -
12.07.2018 03:00:00 23,2 22,4 8 4 S 1015,5 15 -
12.07.2018 02:00:00 23,6 21,5 0 0 N 1015,5 15 -
12.07.2018 01:00:00 23,4 21,7 0 0 N 1015,3 15 -
12.07.2018 00:00:00 24,0 17,7 8 4 S 1015,0 15 -
11.07.2018 23:00:00 24,0 20,7 0 0 N 1014,7 10 -
11.07.2018 22:00:00 24,2 20,1 0 0 N 1014,4 15 -
11.07.2018 21:00:00 24,8 22,1 8 4 W 1014,3 20 6
11.07.2018 20:00:00 25,0 21,3 9 5 WSW 1014,3 20 60
11.07.2018 19:00:00 25,4 21,3 9 5 SSW 1014,3 20 60
11.07.2018 18:00:00 25,4 20,7 8 4 NNE 1014,4 20 60
11.07.2018 17:00:00 26,6 22,5 5 3 WNW 1014,3 20 60
11.07.2018 16:00:00 27,4 23,2 8 4 ENE 1014,2 20 60
11.07.2018 15:00:00 28,0 21,1 8 4 WNW 1014,2 20 60
11.07.2018 14:00:00 28,0 21,6 9 5 WNW 1014,2 20 60
11.07.2018 13:00:00 27,2 21,7 11 6 WNW 1014,3 20 60
11.07.2018 12:00:00 26,6 22,9 9 5 N 1014,4 20 60
11.07.2018 11:00:00 26,0 23,5 9 5 WNW 1014,3 20 60
11.07.2018 10:00:00 25,0 22,3 9 5 NNE 1014,3 20 60
11.07.2018 09:00:00 25,0 22,7 5 3 WNW 1014,3 20 60
11.07.2018 08:00:00 24,6 22,9 8 4 SSW 1014,3 20 0
11.07.2018 07:00:00 23,6 22,8 8 4 WNW 1014,4 15 -
11.07.2018 06:00:00 23,0 22,3 5 3 W 1014,5 15 -
11.07.2018 05:00:00 23,0 22,2 5 3 NNW 1014,5 15 -
11.07.2018 04:00:00 23,8 23,0 11 6 SSW 1014,4 15 -
11.07.2018 03:00:00 23,8 23,0 9 5 SSW 1014,8 15 -
11.07.2018 02:00:00 24,0 23,0 5 3 S 1014,8 15 -
11.07.2018 01:00:00 24,0 23,2 9 5 SW 1014,7 15 -
11.07.2018 00:00:00 23,8 22,4 9 5 SW 1014,8 15 -
10.07.2018 23:00:00 24,0 21,5 8 4 SW 1014,8 10 -
10.07.2018 22:00:00 24,8 21,7 4 2 N 1014,3 20 -
10.07.2018 21:00:00 25,0 20,7 9 5 WSW 1014,3 20 -
10.07.2018 20:00:00 26,0 21,0 11 6 WNW 1014,2 20 60
10.07.2018 19:00:00 26,4 20,7 13 7 WNW 1014,2 20 60
10.07.2018 18:00:00 26,8 20,9 15 8 WNW 1014,3 20 60
10.07.2018 17:00:00 26,8 21,5 16 9 W 1014,6 20 60
10.07.2018 16:00:00 26,8 23,1 11 6 W 1014,8 20 60
10.07.2018 15:00:00 27,2 23,4 9 5 SW 1014,7 20 60
10.07.2018 14:00:00 27,0 23,0 9 5 SSW 1015,0 20 60
10.07.2018 13:00:00 27,0 22,8 8 4 SSW 1015,2 20 60
10.07.2018 12:00:00 27,0 22,6 8 4 S 1015,2 20 60
10.07.2018 11:00:00 26,0 22,3 8 4 SSE 1015,2 10 60
10.07.2018 10:00:00 26,0 22,7 5 3 SSW 1015,2 15 60
10.07.2018 09:00:00 23,6 21,5 5 3 SSW 1015,4 12 48
10.07.2018 08:00:00 23,4 21,7 5 3 SSW 1014,7 12 0
10.07.2018 07:00:00 23,0 22,3 5 3 SSW 1014,8 12 0
10.07.2018 06:00:00 23,0 22,2 4 2 SSW 1014,8 20 -
10.07.2018 05:00:00 22,8 21,6 5 3 WSW 1014,5 20 -
10.07.2018 04:00:00 23,2 21,3 4 2 ENE 1015,4 20 -
10.07.2018 03:00:00 22,8 20,9 5 3 WSW 1015,7 20 -
10.07.2018 02:00:00 23,0 21,5 18 10 WNW 1015,7 20 -
10.07.2018 01:00:00 23,4 21,9 15 8 W 1016,1 20 -
10.07.2018 00:00:00 23,4 21,7 13 7 W 1016,1 20 -
09.07.2018 23:00:00 23,8 21,1 16 9 W 1016,0 20 -
09.07.2018 22:00:00 24,0 20,5 16 9 W 1015,4 20 -
09.07.2018 21:00:00 24,2 21,1 15 8 W 1015,4 20 12
09.07.2018 20:00:00 25,0 21,1 9 5 WSW 1015,3 20 60

tt = temperature
td = dewpoint
ff = wind speed
dd = wind direction
ppp = reduced air pressure
vv = visibility
sd = sunshine duration

Next stations